GW5122 Weather Reports


time (UTC)temp
F
wind
direction
speed
knots
gust
knots
rain 1hr
in
rain 24hr
in
rain mn
in
humidity
%
barometer
mb
20260510033804 55 287 0.0 0.9 0.00 0.04 0.04 82 1008.0
20260510033301 56 214 0.0 0.9 0.00 0.04 0.04 80 1008.0
20260510032757 56 251 0.9 1.7 0.00 0.04 0.04 80 1008.0
20260510032253 55 277 0.0 2.6 0.00 0.04 0.04 81 1007.9
20260510031749 55 215 0.0 0.0 0.00 0.04 0.04 81 1007.9
20260510031245 55 167 1.7 3.5 0.00 0.04 0.04 81 1007.7
20260510030739 56 291 0.0 0.9 0.00 0.04 0.04 81 1007.8
20260510030236 55 149 0.9 1.7 0.00 0.04 0.04 82 1007.8
20260510025733 55 258 0.0 0.0 0.00 0.04 0.04 83 1007.9
20260510025231 53 277 1.7 2.6 0.00 0.04 0.04 84 1007.8
20260510024728 53 99 0.0 0.9 0.00 0.04 0.04 87 1007.7
20260510024224 52 180 0.0 0.0 0.00 0.04 0.04 87 1007.8
20260510023720 53 227 0.0 0.0 0.00 0.04 0.04 87 1007.8
20260510023217 51 311 0.0 0.9 0.00 0.04 0.04 91 1007.8
20260510022714 51 311 0.0 0.9 0.00 0.04 0.04 90 1007.9
20260510022208 52 311 0.0 0.0 0.00 0.04 0.04 88 1007.8
20260510021703 51 310 0.0 0.9 0.00 0.04 0.04 91 1007.9
20260510021201 50 310 0.9 1.7 0.00 0.04 0.04 92 1007.6
20260510020655 50 190 0.0 0.0 0.00 0.04 0.04 91 1007.6
20260510020151 50 269 0.0 0.0 0.00 0.04 0.04 90 1007.4
20260510015647 51 269 0.0 0.0 0.00 0.04 0.04 89 1007.4
20260510015144 51 269 0.0 0.0 0.00 0.04 0.04 91 1007.3
20260510014639 51 269 0.0 0.0 0.00 0.04 0.04 91 1007.2
20260510014137 51 269 0.0 0.0 0.00 0.04 0.04 90 1007.4
20260510013636 51 268 0.0 0.9 0.00 0.04 0.04 89 1007.3
20260510013132 52 268 0.0 0.9 0.00 0.04 0.04 87 1007.1
20260510012632 53 268 0.0 0.0 0.00 0.04 0.04 86 1007.2
20260510012128 53 268 0.0 0.0 0.00 0.04 0.04 85 1007.0
20260510011623 54 268 0.0 0.0 0.00 0.04 0.04 84 1007.0
20260510011119 54 268 0.0 0.0 0.00 0.04 0.04 83 1007.1
20260510010615 54 268 0.0 0.0 0.00 0.04 0.04 82 1007.1
20260510010113 55 268 0.0 0.9 0.00 0.04 0.04 82 1006.9
20260510005608 56 268 0.0 0.9 0.00 0.04 0.04 79 1007.0
20260510005106 57 268 0.9 0.9 0.00 0.04 0.04 77 1007.0
20260510004604 58 268 0.0 3.5 0.00 0.04 0.04 74 1006.7
20260510004102 58 282 0.0 0.9 0.00 0.04 0.04 75 1006.6
20260510003558 59 260 0.9 1.7 0.00 0.04 0.04 73 1006.4
20260510003054 59 288 0.9 0.9 0.00 0.04 0.04 72 1006.5
20260510002554 59 251 2.6 3.5 0.00 0.04 0.04 71 1006.5
20260510002051 59 258 2.6 2.6 0.00 0.04 0.04 72 1006.5
20260510001548 60 119 0.0 2.6 0.00 0.04 0.04 72 1006.5
20260510001047 60 159 0.0 2.6 0.00 0.04 0.04 70 1006.5
20260510000542 60 251 0.9 0.9 0.00 0.04 0.04 70 1006.4
20260510000039 60 191 0.0 1.7 0.00 0.04 0.04 70 1006.6
20260509235535 61 168 0.9 0.9 0.00 0.04 0.04 70 1006.2
20260509235032 61 172 1.7 2.6 0.00 0.04 0.04 68 1006.0
20260509234528 61 142 3.5 5.2 0.00 0.04 0.04 67 1006.1
20260509234026 62 184 0.9 3.5 0.00 0.04 0.04 66 1005.9
20260509233523 63 179 2.6 3.5 0.00 0.04 0.04 64 1006.2
20260509233021 63 190 0.0 1.7 0.00 0.04 0.04 65 1006.0
20260509232517 64 228 0.0 1.7 0.00 0.04 0.04 63 1005.9
20260509232014 64 203 2.6 5.2 0.00 0.04 0.04 62 1006.0
20260509231510 63 265 0.9 5.2 0.00 0.04 0.04 64 1005.9
20260509231008 63 307 3.5 5.2 0.00 0.04 0.04 62 1006.0
20260509230505 63 354 0.0 6.1 0.00 0.04 0.04 64 1006.0
20260509230001 64 262 1.7 3.5 0.00 0.04 0.04 61 1006.4
20260509225457 64 181 1.7 6.1 0.00 0.04 0.04 61 1006.2
20260509224953 63 284 1.7 5.2 0.00 0.04 0.04 61 1006.1
20260509224449 64 244 5.2 7.0 0.00 0.04 0.04 60 1006.2
20260509223946 63 215 1.7 5.2 0.00 0.04 0.04 62 1006.2
20260509223442 63 171 3.5 7.0 0.00 0.04 0.04 64 1006.4
20260509222940 63 203 3.5 7.0 0.00 0.04 0.04 62 1006.2
20260509222435 63 198 1.7 6.1 0.00 0.04 0.04 65 1006.6
20260509221931 64 202 3.5 6.1 0.00 0.04 0.04 63 1006.4
20260509221428 64 261 3.5 6.1 0.00 0.04 0.04 62 1006.2
20260509220924 64 224 5.2 7.0 0.00 0.04 0.04 58 1006.4
20260509220420 63 299 0.9 2.6 0.00 0.04 0.04 64 1006.5
20260509215916 63 263 5.2 7.0 0.00 0.04 0.04 62 1006.6
20260509215412 63 316 0.0 2.6 0.00 0.04 0.04 64 1006.5
20260509214909 64 186 3.5 6.1 0.00 0.04 0.04 63 1006.6
20260509214406 64 256 5.2 11.3 0.00 0.04 0.04 63 1006.4
20260509213904 63 262 0.9 1.7 0.00 0.04 0.04 63 1006.2
20260509213359 63 262 0.9 1.7 0.00 0.04 0.04 63 1006.2
20260509212857 63 202 1.7 8.7 0.00 0.04 0.04 62 1006.2
20260509212354 64 315 4.3 7.0 0.00 0.04 0.04 61 1006.5
20260509211850 64 152 1.7 5.2 0.00 0.04 0.04 62 1006.5
20260509211346 65 173 1.7 5.2 0.00 0.04 0.04 60 1006.5
20260509210842 64 255 1.7 2.6 0.00 0.04 0.04 62 1006.2
20260509210340 64 125 3.5 6.1 0.00 0.04 0.04 62 1006.5
20260509205840 63 148 3.5 7.8 0.00 0.04 0.04 64 1006.2
20260509205334 62 235 2.6 9.6 0.00 0.04 0.04 64 1006.5
20260509204831 63 97 1.7 1.7 0.00 0.04 0.04 63 1006.6
20260509204328 63 97 1.7 1.7 0.00 0.04 0.04 63 1006.6
20260509203824 62 154 2.6 5.2 0.00 0.04 0.04 64 1006.6
20260509203321 62 298 5.2 6.1 0.00 0.04 0.04 65 1006.4
20260509202817 0 0.0 0.0 0.00 0.04 0.04 1006.4
20260509202314 0 0.0 0.0 0.00 0.04 0.04 1006.2
20260509201813 64 175 1.7 2.6 0.00 0.04 0.04 62 1006.6
20260509201310 64 175 1.7 2.6 0.00 0.04 0.04 62 1006.5
20260509200806 64 240 3.5 5.2 0.00 0.04 0.04 62 1006.6
20260509200302 64 228 5.2 7.8 0.00 0.04 0.04 64 1006.7
20260509195759 63 260 5.2 7.0 0.00 0.04 0.04 64 1006.6
20260509195254 63 263 2.6 6.1 0.00 0.04 0.04 62 1006.7
20260509194753 64 162 1.7 3.5 0.00 0.04 0.04 61 1006.5
20260509194249 62 273 2.6 7.8 0.00 0.04 0.04 65 1006.6
20260509193747 62 260 1.7 3.5 0.00 0.04 0.04 67 1006.8
20260509193247 62 150 1.7 2.6 0.00 0.04 0.04 66 1006.7
20260509192743 62 266 3.5 5.2 0.00 0.04 0.04 67 1006.6
20260509192243 62 234 1.7 3.5 0.00 0.04 0.04 63 1006.8
20260509191739 62 244 3.5 5.2 0.00 0.04 0.04 65 1006.8
20260509191236 62 255 1.7 2.6 0.00 0.04 0.04 67 1006.8
20260509190732 61 81 2.6 7.0 0.00 0.04 0.04 67 1006.9
20260509190229 61 340 4.3 7.8 0.00 0.04 0.04 68 1006.7
20260509185726 62 305 1.7 7.0 0.00 0.04 0.04 64 1006.7
20260509185223 61 252 1.7 5.2 0.00 0.04 0.04 63 1006.6
20260509184720 62 210 0.9 3.5 0.00 0.04 0.04 63 1006.5
20260509184217 62 256 1.7 5.2 0.00 0.04 0.04 63 1006.4
20260509183713 62 246 1.7 9.6 0.00 0.04 0.04 68 1006.5
20260509183209 62 254 1.7 3.5 0.00 0.04 0.04 61 1006.6
20260509182704 62 258 0.9 5.2 0.00 0.04 0.04 66 1006.6
20260509182202 61 294 1.7 3.5 0.00 0.04 0.04 64 1006.6
20260509181700 61 241 0.9 5.2 0.00 0.04 0.04 63 1006.6
20260509181157 60 219 0.9 2.6 0.00 0.04 0.04 64 1006.5
20260509180654 59 157 2.6 3.5 0.00 0.04 0.04 65 1006.5
20260509180150 59 343 0.9 1.7 0.00 0.04 0.04 67 1006.9
20260509175646 59 262 0.9 0.9 0.00 0.04 0.04 66 1006.7
20260509175143 59 160 1.7 2.6 0.00 0.04 0.04 65 1006.8
20260509174639 59 273 1.7 3.5 0.00 0.04 0.04 66 1006.6
20260509174134 59 260 0.9 2.6 0.00 0.04 0.04 70 1006.7
20260509173630 58 157 1.7 1.7 0.00 0.04 0.04 68 1006.8
20260509173126 59 135 0.9 6.1 0.00 0.04 0.04 66 1006.9
20260509172623 59 181 2.6 6.1 0.00 0.04 0.04 70 1006.9
20260509172119 60 280 3.5 3.5 0.00 0.04 0.04 69 1007.0
20260509171615 59 240 0.0 1.7 0.00 0.04 0.04 74 1006.8
20260509171111 59 153 0.9 2.6 0.00 0.04 0.04 72 1006.9
20260509170607 59 204 0.0 6.1 0.00 0.04 0.04 71 1006.8
20260509170104 58 127 1.7 2.6 0.00 0.04 0.04 73 1006.9
20260509165602 58 245 0.9 3.5 0.00 0.04 0.04 70 1006.6
20260509165058 58 171 1.7 2.6 0.00 0.04 0.04 72 1006.8
20260509164554 58 104 2.6 6.1 0.00 0.04 0.04 74 1006.9
20260509164050 58 166 1.7 2.6 0.00 0.04 0.04 78 1006.7
20260509163548 58 120 1.7 2.6 0.00 0.04 0.04 79 1006.8
20260509163043 58 167 0.9 0.9 0.00 0.04 0.04 76 1006.8
20260509162540 58 225 0.0 0.0 0.00 0.04 0.04 77 1007.0
20260509162036 57 245 0.0 0.9 0.00 0.04 0.04 78 1006.9
20260509161533 57 98 0.0 1.7 0.00 0.04 0.04 81 1007.2
20260509161028 56 166 0.0 0.9 0.00 0.04 0.04 81 1007.3
20260509160524 56 92 0.0 0.9 0.00 0.04 0.04 82 1007.2
20260509160019 56 139 0.0 2.6 0.00 0.04 0.04 83 1007.2
20260509155515 56 149 2.6 5.2 0.00 0.04 0.04 82 1007.3
20260509155012 56 146 3.5 5.2 0.00 0.04 0.04 82 1007.3
20260509154508 57 148 0.0 2.6 0.00 0.04 0.04 85 1007.2
20260509154006 56 185 0.9 1.7 0.00 0.04 0.04 86 1007.5
20260509153503 55 165 0.9 1.7 0.00 0.04 0.04 85 1007.4
20260509152959 55 182 0.9 1.7 0.00 0.04 0.04 85 1007.5
20260509152455 55 182 0.9 0.9 0.00 0.04 0.04 87 1007.5
20260509151952 54 225 0.9 1.7 0.00 0.04 0.04 87 1007.5
20260509151448 54 185 1.7 1.7 0.00 0.04 0.04 89 1007.6
20260509150947 54 240 0.9 2.6 0.00 0.04 0.04 87 1007.5
20260509150443 54 185 1.7 1.7 0.00 0.04 0.04 88 1007.6
20260509145943 54 142 0.0 2.6 0.00 0.04 0.04 89 1007.4
20260509145442 53 171 0.9 2.6 0.00 0.04 0.04 89 1007.7
20260509144938 53 143 0.9 3.5 0.00 0.04 0.04 91 1007.5
20260509144435 53 183 0.9 1.7 0.00 0.04 0.04 91 1007.5
20260509143932 53 197 0.0 1.7 0.00 0.04 0.04 91 1007.6
20260509143429 52 203 0.9 2.6 0.00 0.04 0.04 92 1007.4
20260509142925 52 166 0.9 1.7 0.00 0.04 0.04 93 1007.4
20260509142422 52 125 1.7 2.6 0.00 0.04 0.04 93 1007.2
20260509141918 52 170 0.9 0.9 0.00 0.04 0.04 94 1007.4
20260509141415 52 152 1.7 1.7 0.00 0.04 0.04 94 1007.5
20260509140912 52 180 0.9 1.7 0.00 0.04 0.04 94 1007.4
20260509140408 52 190 0.0 0.9 0.00 0.04 0.04 95 1007.4
20260509135906 51 130 0.9 1.7 0.00 0.04 0.04 94 1007.6
20260509135403 51 152 1.7 1.7 0.00 0.04 0.04 94 1007.7
20260509134901 52 178 1.7 1.7 0.00 0.04 0.04 94 1007.4
20260509134358 52 182 0.0 0.9 0.00 0.04 0.04 94 1007.7
20260509133855 52 173 0.9 1.7 0.00 0.04 0.04 94 1007.8
20260509133351 52 126 0.0 0.0 0.00 0.04 0.04 93 1007.7
20260509132850 52 126 0.0 0.9 0.00 0.04 0.04 94 1007.4
20260509132348 51 126 0.0 0.0 0.00 0.04 0.04 94 1007.8
20260509131845 51 126 0.0 0.0 0.00 0.04 0.04 95 1007.8
20260509131341 51 126 1.7 2.6 0.00 0.04 0.04 93 1007.6
20260509130838 51 140 0.0 0.0 0.00 0.04 0.04 96 1007.7
20260509130334 50 139 0.0 0.9 0.00 0.04 0.04 97 1007.6
20260509125831 50 155 0.0 0.0 0.00 0.04 0.04 98 1007.6
20260509125327 50 170 0.0 1.7 0.00 0.04 0.04 98 1007.6
20260509124823 50 314 0.0 0.0 0.00 0.04 0.04 99 1007.8
20260509124320 49 315 0.0 0.9 0.07 0.04 0.04 99 1007.8
20260509123819 49 315 0.0 0.9 0.07 0.04 0.04 99 1007.8
20260509123316 49 315 0.9 0.9 0.00 0.03 0.03 99 1007.6
20260509122811 49 242 0.9 0.9 0.00 0.03 0.03 99 1007.7
20260509122308 49 239 0.0 0.9 0.05 0.03 0.03 99 1008.0
20260509121805 49 194 0.0 0.9 0.05 0.03 0.03 99 1007.9
20260509121302 49 270 0.0 0.0 0.00 0.02 0.02 99 1007.8
20260509120800 49 270 0.0 0.0 0.00 0.02 0.02 99 1007.9
20260509120258 49 270 0.9 0.9 0.00 0.02 0.02 99 1007.9
20260509115756 49 270 0.0 0.0 0.00 0.02 0.02 99 1007.9
20260509115252 49 270 0.0 1.7 0.00 0.02 0.02 99 1007.9
20260509114750 49 270 0.0 0.9 0.00 0.02 0.02 99 1008.0
20260509114249 49 270 0.0 0.0 0.00 0.02 0.02 98 1008.0
20260509113747 49 208 0.0 0.9 0.00 0.02 0.02 99 1008.0
20260509113244 49 278 0.0 0.0 0.00 0.02 0.02 99 1007.7
20260509112741 49 278 0.0 0.0 0.00 0.02 0.02 99 1007.6
20260509112238 49 278 0.0 0.0 0.00 0.02 0.02 99 1007.7
20260509111735 49 278 0.9 0.9 0.07 0.02 0.02 98 1007.6
20260509111232 49 277 0.0 0.9 0.07 0.02 0.02 98 1007.7
20260509110729 49 118 0.0 0.9 0.00 0.01 0.01 98 1007.7
20260509110226 49 277 0.0 0.0 0.00 0.01 0.01 98 1007.8
20260509105724 49 276 0.0 0.0 0.00 0.01 0.01 98 1007.9
20260509105221 49 274 0.0 0.0 0.00 0.01 0.01 98 1007.7
20260509104718 49 120 0.0 0.0 0.00 0.01 0.01 98 1007.8
20260509104215 49 120 0.0 0.0 0.00 0.01 0.01 97 1007.5
20260509103713 49 120 0.0 0.0 0.00 0.01 0.01 97 1007.8
20260509103210 49 119 0.0 0.9 0.00 0.01 0.01 97 1007.8
20260509102709 49 124 0.0 0.0 0.00 0.01 0.01 96 1007.9
20260509102205 49 123 0.0 0.9 0.00 0.01 0.01 96 1007.9
20260509101701 49 160 0.0 1.7 0.00 0.01 0.01 96 1007.7
20260509101158 49 155 0.0 1.7 0.00 0.01 0.01 95 1008.0
20260509100655 49 43 0.9 0.9 0.00 0.01 0.01 93 1007.6
20260509100152 50 43 0.9 0.9 0.05 0.01 0.01 92 1007.6
20260509095649 50 297 0.0 0.9 0.05 0.01 0.01 90 1007.5
20260509095146 50 313 0.0 1.7 0.00 0.00 0.00 89 1007.8
20260509094642 50 302 0.9 0.9 0.00 0.00 0.00 89 1007.8
20260509094140 51 303 0.9 2.6 0.00 0.00 0.00 87 1007.8
20260509093638 51 317 1.7 5.2 0.00 0.00 0.00 86 1007.9
20260509093135 51 318 2.6 6.1 0.00 0.00 0.00 85 1007.9
20260509092633 51 309 3.5 6.1 0.00 0.00 0.00 84 1008.1
20260509092131 52 302 3.5 7.0 0.00 0.00 0.00 81 1007.7
20260509091629 53 310 5.2 7.0 0.00 0.00 0.00 77 1007.7
20260509091125 53 311 2.6 5.2 0.00 0.00 0.00 76 1007.7
20260509090623 53 312 0.9 6.1 0.00 0.00 0.00 75 1007.5
20260509090120 53 311 6.1 7.8 0.00 0.00 0.00 74 1007.5
20260509085617 54 320 5.2 7.8 0.00 0.00 0.00 73 1007.7
20260509085113 54 272 1.7 7.8 0.00 0.00 0.00 71 1007.6
20260509084610 55 301 4.3 7.0 0.00 0.00 0.00 69 1007.8
20260509084107 55 296 3.5 7.0 0.00 0.00 0.00 66 1007.7
20260509083605 55 324 5.2 12.2 0.00 0.00 0.00 66 1007.7
20260509083101 55 301 4.3 5.2 0.00 0.00 0.00 67 1007.7
20260509082559 55 14 0.9 2.6 0.00 0.00 0.00 67 1007.5
20260509082055 55 280 3.5 5.2 0.00 0.00 0.00 67 1007.5
20260509081552 54 294 5.2 7.0 0.00 0.00 0.00 69 1007.6
20260509081049 53 182 0.0 3.5 0.00 0.00 0.00 74 1007.6
20260509080547 53 267 0.0 3.5 0.00 0.00 0.00 73 1007.6
20260509080045 53 256 1.7 2.6 0.00 0.00 0.00 71 1007.4
20260509075542 0 0.0 0.0 0.00 0.00 0.00 1007.2
20260509075040 0 0.0 0.0 0.00 0.00 0.00 1007.3
20260509074537 54 287 0.9 0.9 0.00 0.00 0.00 71 1007.4
20260509074033 54 287 0.9 0.9 0.00 0.00 0.00 71 1007.6
20260509073530 54 240 0.0 0.9 0.00 0.00 0.00 68 1007.6
20260509073026 55 162 0.9 3.5 0.00 0.00 0.00 68 1007.7
20260509072523 55 248 2.6 2.6 0.00 0.00 0.00 66 1007.7
20260509072020 53 217 0.9 3.5 0.00 0.00 0.00 67 1007.5
20260509071517 49 283 0.9 1.7 0.00 0.00 0.00 87 1007.3
20260509071014 48 248 1.7 1.7 0.00 0.00 0.00 85 1007.4
20260509070511 48 283 0.0 0.0 0.00 0.00 0.00 90 1007.2
20260509070008 48 283 0.0 0.0 0.00 0.00 0.00 90 1007.2
20260509065503 48 283 0.0 0.0 0.00 0.00 0.00 89 1007.2
20260509064959 48 283 0.0 0.0 0.00 0.00 0.00 89 1007.2
20260509064457 48 283 0.0 0.0 0.00 0.00 0.00 87 1007.0
20260509063955 48 283 0.0 0.0 0.00 0.00 0.00 89 1007.1
20260509063450 48 283 0.0 0.0 0.00 0.00 0.00 88 1007.0
20260509062948 48 283 0.0 0.0 0.00 0.00 0.00 89 1007.0
20260509062445 47 283 0.0 0.9 0.00 0.00 0.00 90 1006.9
20260509061942 47 283 0.0 0.0 0.00 0.00 0.00 91 1007.2
20260509061439 48 283 0.0 0.0 0.00 0.00 0.00 90 1007.1
20260509060936 48 283 0.0 0.0 0.00 0.00 0.00 90 1007.4
20260509060434 48 283 0.0 0.0 0.00 0.00 0.00 89 1007.3
20260509055929 48 283 0.0 0.0 0.00 0.00 0.00 90 1007.2
20260509055424 47 283 0.0 0.9 0.00 0.00 0.00 88 1007.3
20260509054921 48 283 0.0 0.9 0.00 0.00 0.00 87 1007.6
20260509054418 48 283 0.0 0.0 0.00 0.00 0.00 87 1007.6
20260509053917 48 283 0.9 1.7 0.00 0.00 0.00 88 1007.6
20260509053414 48 283 0.9 0.9 0.00 0.00 0.00 89 1007.6
20260509052906 48 283 0.0 0.9 0.00 0.00 0.00 88 1007.7
20260509052403 49 283 0.0 0.0 0.00 0.00 0.00 87 1007.8
20260509051901 48 283 0.9 0.9 0.00 0.00 0.00 88 1007.8
20260509051359 49 283 0.0 0.0 0.00 0.00 0.00 90 1007.7
20260509050855 49 283 0.0 0.0 0.00 0.00 0.00 90 1008.0
20260509050352 49 283 0.0 0.9 0.00 0.00 0.00 88 1007.8
20260509045848 49 283 0.9 0.9 0.00 0.00 0.00 89 1007.9
20260509045345 49 283 0.0 0.0 0.00 0.00 0.00 89 1008.0
20260509044843 49 283 0.0 0.0 0.00 0.00 0.00 87 1008.0
20260509044340 49 283 0.0 0.0 0.00 0.00 0.00 88 1007.9
20260509043836 49 283 0.0 0.0 0.00 0.00 0.00 88 1007.9
20260509043332 50 283 0.0 0.0 0.00 0.00 0.00 88 1008.5
20260509042828 50 283 0.0 0.0 0.00 0.00 0.00 88 1008.0
20260509042325 50 283 0.0 0.0 0.00 0.00 0.00 87 1008.1
20260509041822 50 283 0.0 0.0 0.00 0.00 0.00 88 1008.3
20260509041319 50 283 0.0 0.0 0.00 0.00 0.00 88 1008.1
20260509040817 50 283 0.0 0.0 0.00 0.00 0.00 87 1008.4
20260509040314 50 283 0.0 0.0 0.00 0.00 0.00 87 1008.1
20260509035811 50 283 0.0 0.0 0.00 0.00 0.00 87 1008.3
20260509035309 50 283 0.0 0.0 0.00 0.00 0.00 86 1008.4
20260509034804 50 283 0.0 0.0 0.00 0.00 0.00 86 1008.5
20260509034302 50 283 0.0 0.0 0.00 0.00 0.00 86 1008.4